Tracking 25734 objects as of 28-May-2022
HD Live streaming from Space Station
objects crossing your sky now

SL-3 DEB

Track SL-3 DEB now!
10-day predictions


NORAD ID: 14229
Int'l Code: 1983-075D
Perigee: 559.8 km
Apogee: 595.8 km
Inclination: 97.7 °
Period: 96.1 minutes
Semi major axis: 6948 km
RCS: 0.0149 m2 (small)
Launch date: July 24, 1983
Source: Commonwealth of Independent States (former USSR) (CIS)
Launch site: TYURATAM MISSILE AND SPACE COMPLEX (TTMTR)

Note: This is SATELLITE DEBRIS
aabbcc
Your satellite tracking list
Your tracking list is empty




NASA's NSSDC Master Catalog

Two Line Element Set (TLE):
1 14229U 83075D   22147.86854163  .00001380  00000-0  11885-3 0  9996
2 14229  97.6968 109.8864 0025915 300.2755 113.5782 14.98769758108791
Source of the keplerian elements: AFSPC